Regional Weather Roundup
Issued by NWS

Home | Current Version | Previous Version | Text Only | Print | Product List | Glossary On
Versions: 1 2 3 4 5 6 7 8 9 10 11 12 13 14 15 16 17 18 19 20 21 22 23 24 25 26 27 28 29 30 31 32 33 34 35 36 37 38 39 40 41 42 43 44 45 46 47 48 49 50
000
ASUS43 KFSD 181710
RWRSD

WEATHER ROUNDUP FOR SOUTH DAKOTA
NATIONAL WEATHER SERVICE SIOUX FALLS SD
1100 AM CST SAT NOV 18 2017

NOTE: "FAIR" INDICATES FEW OR NO CLOUDS BELOW 12,000 FEET WITH NO
SIGNIFICANT WEATHER AND/OR OBSTRUCTIONS TO VISIBILITY.


SDZ001>005-009-010-012>017-181800-
NORTHWEST AND NORTH CENTRAL SOUTH DAKOTA

CITY           SKY/WX    TMP DP  RH WIND       PRES   REMARKS
BUFFALO          N/A     31  25  78 NW13      30.05S WCI  21
FAITH            N/A     28  22  78 NW13      30.13R WCI  17
MOBRIDGE       SUNNY     25  15  66 NW13      30.11R WCI  14
$$

SDZ012>016-024>037-041>051-057-063-072>074-181800-
SOUTHWEST AND SOUTH CENTRAL SOUTH DAKOTA

CITY           SKY/WX    TMP DP  RH WIND       PRES   REMARKS
RAPID CTY ARPT SUNNY     42  18  37 NW21G31   30.15R
PIERRE         MOSUNNY   30  21  69 NW22      30.14R WCI  17
CUSTER         SUNNY     31  13  47 NW9G25    30.11R WCI  23
ELLSWORTH AFB  SUNNY     42  17  37 NW20G30   30.13R
PHILIP         SUNNY     37  28  70 NW17      30.16R
PINE RIDGE     SUNNY     39  24  55 NW15G22   30.18R
SPEARFISH      FAIR      36  16  44 W17G32    30.13R
WINNER         CLOUDY    37  29  72 NW23G29   30.13R
$$

SDZ004>011-016>023-039-040-181800-
NORTHEAST SOUTH DAKOTA

CITY           SKY/WX    TMP DP  RH WIND       PRES   REMARKS
ABERDEEN       SUNNY     27  15  61 NW15      30.09R WCI  15
WATERTOWN      CLOUDY    25  15  66 NW18G26   29.99R WCI  11
BROOKINGS      PTSUNNY   30  20  66 NW23G30   29.98R WCI  17
SISSETON         N/A     27  14  58 NW26G32   30.02R WCI  12
$$

SDZ017-020-022-023-036>040-048>070-181800-
SOUTHEAST SOUTH DAKOTA

CITY           SKY/WX    TMP DP  RH WIND       PRES   REMARKS
SIOUX FALLS    MOSUNNY   37  24  59 N29G38    29.99R
HURON          MOSUNNY   31  18  58 NW18G30   30.09R WCI  19
CHAMBERLAIN    MOSUNNY   36  26  68 NW25      30.11R
MITCHELL       MOSUNNY   34  25  69 NW21G30   30.08R WCI  22
YANKTON        SUNNY     37  26  64 NW25G38   30.03R
$$

ABBREVIATIONS USED IN REMARKS
   TC - TEMPERATURE IN CELSIUS
  WCI - WIND CHILL INDEX
   HX - HEAT INDEX
  VSB - VISIBILITY




USA.gov is the U.S. government's official web portal to all federal, state and local government web resources and services.